KA0WUC-13 Weather Reports


time (UTC)temp
C
wind
direction
speed
KPH
gust
KPH
rain 1hr
cm
rain 24hr
cm
rain mn
cm
humidity
%
barometer
mb
20260906204516 34 153 9.7 25.7 0.00 0.00 0.00 41 1014.7
20260906203516 33 144 12.9 27.4 0.00 0.00 0.00 42 1014.8
20260906202516 33 155 12.9 30.6 0.00 0.00 0.00 42 1015.0
20260906201516 33 137 14.5 30.6 0.00 0.00 0.00 43 1014.9
20260906200516 33 159 12.9 27.4 0.00 0.00 0.00 43 1015.2
20260906195536 33 170 14.5 32.2 0.00 0.00 0.00 43 1015.2
20260906194516 32 133 16.1 29.0 0.00 0.00 0.00 45 1015.1
20260906193537 32 140 12.9 32.2 0.00 0.00 0.00 45 1015.2
20260906192516 32 126 16.1 33.8 0.00 0.00 0.00 45 1015.0
20260906191516 32 139 11.3 30.6 0.00 0.00 0.00 46 1015.1
20260906190516 32 140 9.7 27.4 0.00 0.00 0.00 45 1015.2
20260906185516 32 160 11.3 27.4 0.00 0.00 0.00 46 1015.2
20260906184516 32 145 9.7 24.1 0.00 0.00 0.00 46 1015.2
20260906183536 32 145 14.5 27.4 0.00 0.00 0.00 46 1015.3
20260906182516 31 150 14.5 27.4 0.00 0.00 0.00 45 1015.5
20260906181516 31 137 11.3 24.1 0.00 0.00 0.00 47 1015.7
20260906180516 31 138 11.3 22.5 0.00 0.00 0.00 48 1016.0
20260906175516 31 152 11.3 25.7 0.00 0.00 0.00 47 1016.0
20260906174516 30 143 11.3 24.1 0.00 0.00 0.00 49 1016.3
20260906173516 30 137 12.9 27.4 0.00 0.00 0.00 50 1016.5
20260906172516 30 143 12.9 27.4 0.00 0.00 0.00 50 1016.4
20260906171536 30 147 9.7 24.1 0.00 0.00 0.00 54 1016.5
20260906170516 29 115 14.5 30.6 0.00 0.00 0.00 55 1016.6
20260906165516 29 129 11.3 29.0 0.00 0.00 0.00 55 1016.6
20260906164516 28 112 11.3 27.4 0.00 0.00 0.00 56 1016.7
20260906163516 28 128 9.7 22.5 0.00 0.00 0.00 57 1016.7
20260906162516 28 127 12.9 24.1 0.00 0.00 0.00 56 1016.7
20260906161516 28 137 11.3 24.1 0.00 0.00 0.00 56 1016.7
20260906160516 28 139 11.3 25.7 0.00 0.00 0.00 57 1016.8
20260906155516 28 135 6.4 22.5 0.00 0.00 0.00 57 1016.8
20260906154515 28 125 8.0 19.3 0.00 0.00 0.00 57 1016.6
20260906153515 27 149 8.0 20.9 0.00 0.00 0.00 57 1016.4
20260906152515 27 175 8.0 20.9 0.00 0.00 0.00 58 1016.6
20260906151515 27 139 9.7 25.7 0.00 0.00 0.00 58 1016.4
20260906150516 26 154 8.0 19.3 0.00 0.00 0.00 62 1016.5
20260906145516 25 117 6.4 17.7 0.00 0.00 0.00 65 1016.2
20260906144535 25 95 4.8 11.3 0.00 0.00 0.00 67 1016.3
20260906143515 24 82 3.2 9.7 0.00 0.00 0.00 69 1016.5
20260906142516 23 85 3.2 9.7 0.00 0.00 0.00 69 1016.6
20260906141516 23 78 3.2 8.0 0.00 0.00 0.00 70 1016.5
20260906140515 22 84 1.6 9.7 0.00 0.00 0.00 72 1016.3
20260906135515 22 92 3.2 8.0 0.00 0.00 0.00 72 1016.3
20260906134535 22 65 4.8 11.3 0.00 0.00 0.00 72 1016.3
20260906133515 22 49 0.0 6.4 0.00 0.00 0.00 72 1016.5
20260906132515 22 39 1.6 6.4 0.00 0.00 0.00 72 1016.4
20260906131515 21 40 1.6 8.0 0.00 0.00 0.00 72 1016.4
20260906130515 21 37 1.6 8.0 0.00 0.00 0.00 73 1016.3
20260906125515 21 38 1.6 8.0 0.00 0.00 0.00 73 1016.1
20260906124515 21 37 4.8 14.5 0.00 0.00 0.00 72 1016.2
20260906123555 22 43 9.7 17.7 0.00 0.00 0.00 70 1016.0
20260906122615 22 43 1.6 6.4 0.00 0.00 0.00 69 1015.9
20260906121515 23 46 0.0 4.8 0.00 0.00 0.00 67 1015.9
20260906120515 23 64 1.6 6.4 0.00 0.00 0.00 67 1015.7
20260906115555 23 47 1.6 8.0 0.00 0.00 0.00 68 1015.6
20260906114515 23 51 1.6 8.0 0.00 0.00 0.00 67 1015.6
20260906113515 23 310 0.0 3.2 0.00 0.00 0.00 66 1015.6
20260906112535 24 301 1.6 4.8 0.00 0.00 0.00 65 1015.6
20260906111515 24 309 0.0 6.4 0.00 0.00 0.00 64 1015.7
20260906110515 24 184 1.6 9.7 0.00 0.00 0.00 63 1015.5
20260906105515 25 175 1.6 12.9 0.00 0.00 0.00 63 1015.8
20260906104515 25 173 4.8 9.7 0.00 0.00 0.00 63 1015.8
20260906103515 24 199 3.2 8.0 0.00 0.00 0.00 63 1015.8
20260906102515 24 230 3.2 8.0 0.00 0.00 0.00 64 1016.1
20260906101516 24 0.0 0.0 0.00 0.00 0.00 64 1016.1
20260906100515 24 0.0 0.0 0.00 0.00 0.00 64 1016.1
20260906095636 24 257 0.0 3.2 0.00 0.00 0.00 63 1015.9
20260906094515 24 277 0.0 6.4 0.00 0.00 0.00 63 1015.8
20260906093514 24 302 3.2 8.0 0.00 0.00 0.00 63 1015.7
20260906092514 24 315 4.8 11.3 0.00 0.00 0.00 62 1015.6
20260906091515 24 271 3.2 8.0 0.00 0.00 0.00 62 1015.9
20260906090515 25 308 1.6 6.4 0.00 0.00 0.00 62 1015.9
20260906085516 25 187 0.0 1.6 0.00 0.00 0.00 60 1015.8
20260906084515 25 220 1.6 11.3 0.00 0.00 0.00 60 1016.0
20260906083516 25 0.0 0.0 0.00 0.00 0.00 60 1016.2
20260906082516 25 0.0 0.0 0.00 0.00 0.00 60 1016.1
20260906081537 25 0.0 0.0 0.00 0.00 0.00 60 1016.2
20260906080535 25 0.0 0.0 0.00 0.00 0.00 60 1016.3
20260906075517 25 44 0.0 8.0 0.00 0.00 0.00 58 1016.7
20260906074517 25 352 1.6 6.4 0.00 0.00 0.00 59 1016.5
20260906073516 25 74 0.0 4.8 0.00 0.00 0.00 60 1016.5
20260906072516 25 57 0.0 6.4 0.00 0.00 0.00 60 1016.8
20260906071517 24 28 1.6 6.4 0.00 0.00 0.00 61 1016.6
20260906070516 24 17 1.6 8.0 0.00 0.00 0.00 61 1016.6
20260906065516 24 165 0.0 6.4 0.00 0.00 0.00 60 1016.5
20260906064516 23 172 1.6 8.0 0.00 0.00 0.00 61 1016.1
20260906063517 23 164 3.2 9.7 0.00 0.00 0.00 61 1016.2
20260906062516 23 168 1.6 8.0 0.00 0.00 0.00 62 1016.2
20260906061516 24 0.0 0.0 0.00 0.00 0.00 61 1016.1
20260906060536 24 0.0 0.0 0.00 0.00 0.00 59 1015.9
20260906055515 24 0.0 0.0 0.00 0.00 0.00 58 1015.7
20260906054515 25 132 0.0 6.4 0.00 0.00 0.00 57 1015.8
20260906053515 25 119 1.6 8.0 0.00 0.00 0.00 57 1015.8
20260906052515 25 109 3.2 11.3 0.00 0.00 0.00 56 1015.5
20260906051515 25 116 3.2 9.7 0.00 0.00 0.00 57 1015.5
20260906050515 25 50 1.6 8.0 0.00 0.00 0.00 57 1015.1
20260906045515 25 80 3.2 6.4 0.00 0.00 0.00 57 1015.3
20260906044515 25 0.0 0.0 0.00 0.00 0.00 56 1015.4
20260906043535 25 0.0 3.2 0.00 0.00 0.00 56 1015.1
20260906042515 26 171 1.6 8.0 0.00 0.00 0.00 56 1015.1
20260906041515 26 138 1.6 11.3 0.00 0.00 0.00 56 1014.8
20260906040515 26 159 3.2 14.5 0.00 0.00 0.00 56 1015.0
20260906035536 26 170 3.2 11.3 0.00 0.00 0.00 57 1015.1
20260906034535 26 92 0.0 4.8 0.00 0.00 0.00 58 1015.1
20260906033535 26 0.0 3.2 0.00 0.00 0.00 57 1014.9
20260906032515 26 191 1.6 9.7 0.00 0.00 0.00 56 1014.9
20260906031514 26 177 3.2 11.3 0.00 0.00 0.00 55 1014.8
20260906030514 26 177 4.8 14.5 0.00 0.00 0.00 54 1014.6
20260906025515 27 134 3.2 12.9 0.00 0.00 0.00 53 1014.2
20260906024515 27 172 4.8 16.1 0.00 0.00 0.00 52 1013.9
20260906023515 27 144 4.8 19.3 0.00 0.00 0.00 50 1013.4
20260906022515 28 145 6.4 17.7 0.00 0.00 0.00 50 1013.2
20260906021515 28 135 9.7 19.3 0.00 0.00 0.00 49 1013.1
20260906020515 28 150 4.8 14.5 0.00 0.00 0.00 50 1013.7
20260906015537 29 138 6.4 17.7 0.00 0.00 0.00 49 1013.3
20260906014517 29 143 4.8 20.9 0.00 0.00 0.00 49 1013.2
20260906013517 29 80 6.4 17.7 0.00 0.00 0.00 48 1013.1
20260906012517 30 172 11.3 27.4 0.00 0.00 0.00 49 1013.3
20260906011515 30 172 4.8 17.7 0.00 0.00 0.00 51 1013.3
20260906010514 30 143 4.8 17.7 0.00 0.00 0.00 51 1013.2
20260906005514 31 171 6.4 16.1 0.00 0.00 0.00 52 1013.8
20260906004517 31 156 9.7 24.1 0.00 0.00 0.00 52 1013.7
20260906003516 31 146 9.7 20.9 0.00 0.00 0.00 51 1013.6
20260906002537 31 147 8.0 20.9 0.00 0.00 0.00 50 1013.8
20260906001516 31 135 9.7 22.5 0.00 0.00 0.00 51 1013.6
20260906000516 31 135 9.7 24.1 0.00 0.00 0.00 51 1013.4
20260905235516 31 137 8.0 17.7 0.00 0.00 0.00 50 1013.3
20260905234516 31 135 11.3 27.4 0.00 0.00 0.00 49 1013.3
20260905233517 31 138 11.3 25.7 0.00 0.00 0.00 49 1013.1
20260905232516 31 139 12.9 30.6 0.00 0.00 0.00 50 1012.9
20260905231516 31 124 11.3 27.4 0.00 0.00 0.00 51 1013.0
20260905230516 31 126 12.9 29.0 0.00 0.00 0.00 51 1013.1
20260905225516 31 134 16.1 30.6 0.00 0.00 0.00 51 1013.1
20260905224536 31 135 14.5 30.6 0.00 0.00 0.00 49 1013.0
20260905223516 32 129 14.5 32.2 0.00 0.00 0.00 48 1013.1
20260905222516 32 133 17.7 41.8 0.00 0.00 0.00 46 1013.1
20260905221557 33 118 16.1 29.0 0.00 0.00 0.00 45 1013.2
20260905220516 33 125 16.1 37.0 0.00 0.00 0.00 46 1013.5
20260905215516 33 127 17.7 33.8 0.00 0.00 0.00 46 1013.4
20260905214516 33 119 17.7 32.2 0.00 0.00 0.00 47 1013.1
20260905213516 33 110 17.7 37.0 0.00 0.00 0.00 48 1013.1
20260905212516 33 108 14.5 30.6 0.00 0.00 0.00 49 1013.5
20260905211516 33 97 14.5 30.6 0.00 0.00 0.00 47 1013.6
20260905210516 33 98 16.1 32.2 0.00 0.00 0.00 47 1013.6
20260905205516 34 99 12.9 27.4 0.00 0.00 0.00 45 1013.7